Location: Syracuse
(43.0480°N, 76.1480°W)
Time: 04:53:57
(UTC-04:00)

Daily predictions for brighter satellites

Satellite Brightness Start Highest point End
(mag) Time Altitude Azimuth Time Altitude Azimuth Time Altitude Azimuth
SeaSat 1 4.0 00:09:02 31° NNE 00:09:02 31° NNE 00:12:15 10° NNW
Lacrosse 5 3.5 00:07:12 10° NW 00:09:43 30° NW 00:09:43 30° NW
Cosmos 1459 Rocket 4.4 00:15:57 55° NNE 00:15:57 55° NNE 00:20:40 10° N
Cosmos 1943 Rocket 3.7 00:33:12 10° NW 00:36:08 28° WNW 00:36:08 28° WNW
H-2A R/B 4.3 00:45:23 24° NNW 00:45:23 24° NNW 00:47:12 10° NNW
ADEOS Rocket 3.5 01:16:02 10° N 01:21:58 64° NNW 01:21:58 64° NNW
Mayak 1.5 01:32:29 10° NNW 01:33:35 15° NNW 01:33:35 15° NNW
Cosmos 1833 Rocket 4.2 01:59:55 28° ENE 01:59:55 28° ENE 02:03:31 10° NE
Lacrosse 4 Rocket 3.6 02:02:14 10° N 02:05:06 25° NNE 02:05:06 25° NNE
Gbstr 26 Del rocket 4.3 02:16:39 77° WNW 02:17:07 81° NNW 02:24:22 10° ENE
Cosmos 1607 4.3 02:20:37 58° E 02:20:37 58° E 02:26:17 10° NE
Cosmos 2034 Rocket 4.0 02:25:57 76° NNE 02:25:57 76° NNE 02:31:42 10° N
ARIANE 5 R/B 4.4 02:28:50 10° NE 02:32:49 21° E 02:33:21 21° ESE
Lacrosse 5 rocket 3.5 02:35:45 24° ENE 02:35:45 24° ENE 02:37:30 10° NE
Cosmos 1867 4.1 02:28:28 10° NNW 02:33:14 57° NNE 02:33:14 57° NNE
Cosmos 1092 Rocket 4.3 02:30:38 10° N 02:36:47 58° E 02:37:32 55° ESE
Cosmos 371 Rocket 4.2 02:38:31 46° NE 02:38:31 46° NE 02:41:59 10° NNE
Meteor 1-23 Rocket 4.5 02:38:30 66° ENE 02:38:30 66° ENE 02:43:44 10° NNE
Meteor 2-4 Rocket 4.1 02:39:37 54° NNW 02:39:37 54° NNW 02:43:51 10° N
Exosat Rocket 4.3 02:34:53 10° NNW 02:40:50 77° ENE 02:42:46 52° SE
Cosmos 967 Rocket 4.5 02:40:48 10° NW 02:46:34 71° WNW 02:46:34 71° WNW
CZ-2D R/B 2.8 02:42:10 10° NNE 02:47:19 45° E 02:47:19 45° E
Cosmos 2278 4.2 02:46:41 10° NNW 02:50:51 50° NW 02:50:51 50° NW
SL-16 R/B 2.6 02:51:48 58° SE 02:52:58 72° ENE 02:59:14 10° N
Cosmos 1980 Rocket 2.9 02:50:15 10° NNW 02:55:43 50° ENE 02:58:11 30° ESE
Cosmos 1697 Rocket 2.7 02:52:31 10° NNW 02:57:47 77° NNW 02:57:47 77° NNW
IRS-1D 4.2 02:54:18 10° NNE 02:59:19 48° E 02:59:31 48° ESE
IRS-1C 4.3 02:58:18 10° NNE 03:03:37 64° ESE 03:03:43 64° ESE
Cosmos 2082 Rocket 2.1 03:06:40 80° NW 03:06:40 80° NW 03:12:13 10° NNE
ADEOS II 4.5 03:04:46 10° NE 03:07:55 16° E 03:11:03 10° SE
SL-16 R/B 4.4 03:03:42 10° N 03:08:18 24° NE 03:12:52 10° ESE
Cosmos 304 Rocket 4.2 03:11:51 55° E 03:11:51 55° E 03:16:21 10° NNE
H-2A R/B 3.3 03:07:45 10° N 03:10:57 50° N 03:10:57 50° N
Nadezhda 4 Rocket 4.3 03:08:33 10° NNW 03:13:59 49° WNW 03:13:59 49° WNW
ATLAS 3B R/B 4.1 03:16:15 21° SSE 03:19:16 29° ESE 03:25:06 10° NE
MOZ.5/SAFIR/RUBIN 5/SL-8 3.8 03:21:26 72° E 03:21:39 73° ENE 03:26:24 10° N
Cosmos 1544 4.4 03:19:00 10° N 03:21:44 39° NE 03:21:44 39° NE
Resurs 1-4 Rocket 1.9 03:18:00 10° NNE 03:23:17 86° WNW 03:23:32 81° SW
Cosmos 2322 Rocket 4.0 03:19:05 10° N 03:24:00 29° NE 03:28:52 10° ESE
Cosmos 1606 Rocket 4.1 03:21:14 10° N 03:25:29 53° E 03:25:51 51° E
Cosmos 1634 Rocket 3.9 03:24:53 63° SSW 03:25:55 81° W 03:32:13 10° N
Cosmos 1340 Rocket 4.5 03:28:57 25° NNW 03:28:57 25° NNW 03:31:03 10° N
ERS-1 4.3 03:27:19 10° NNE 03:32:18 84° ESE 03:32:47 73° S
IRS-P3 4.3 03:28:16 10° N 03:33:27 53° WNW 03:33:41 52° W
NPP 4.0 03:29:09 10° N 03:34:19 48° WNW 03:34:34 48° WNW
Cosmos 1763 Rocket 4.4 03:34:40 33° SSE 03:36:21 43° ESE 03:41:22 10° NNE
SL-08 R/B 4.1 03:37:49 38° WNW 03:37:49 38° WNW 03:41:19 10° NNW
SJ 16-02 4.5 03:34:26 10° NNE 03:36:51 14° NE 03:39:15 10° E
Cosmos 1892 Rocket 4.1 03:38:18 46° SE 03:39:06 53° E 03:43:23 10° NNE
Cosmos 2279 Rocket 4.0 03:36:56 41° S 03:39:16 78° E 03:45:32 10° N
CBERS-1 4.4 03:35:30 10° N 03:40:22 45° WNW 03:40:29 45° WNW
Cosmos 1025 Rocket 3.7 03:42:56 42° NW 03:42:56 42° NW 03:46:19 10° N
Cosmos 1833 Rocket 3.4 03:41:36 37° WNW 03:42:22 39° WNW 03:47:40 10° NNE
USA 215 4.4 03:37:00 10° ENE 03:42:39 31° SE 03:45:35 22° SSE
COSMOS 2487 3.5 03:45:12 39° N 03:45:12 39° N 03:47:39 10° NNE
Lacrosse 4 Rocket 3.8 03:40:47 10° NW 03:41:22 13° NW 03:41:22 13° NW
Cosmos 2208 Rocket 3.9 03:46:29 60° SW 03:47:18 72° WNW 03:52:35 10° NNE
Cosmos 2026 Rocket 4.0 03:41:16 10° NNW 03:47:34 65° W 03:49:30 44° SSW
Cosmos 1898 Rocket 3.3 03:44:58 10° NNW 03:50:13 83° WSW 03:52:29 35° SSE
Cosmos 44 3.9 03:51:07 10° NNW 03:56:18 62° NE 04:01:37 10° SE
Cosmos 1805 3.9 03:53:38 10° N 03:57:28 54° E 03:59:11 29° SE
Iridium 4 Rocket 4.3 04:00:48 28° WNW 04:00:48 28° WNW 04:04:02 10° NNW
Cosmos 1937 Rocket 3.4 03:55:18 10° NNW 04:00:32 87° ENE 04:05:30 11° SSE
BREEZE-M R/B 2.9 04:00:43 56° SE 04:00:45 56° SE 04:05:43 10° ENE
Cosmos 1570 Rocket 4.4 04:00:10 43° W 04:01:10 48° WNW 04:06:20 10° N
Cosmos 1766 3.0 04:00:45 10° N 04:04:38 79° W 04:04:57 72° SSW
Cosmos 858 Rocket 4.3 03:59:58 10° NNW 04:05:11 75° WSW 04:08:44 21° S
Cosmos 2360 4.4 04:00:31 10° NW 04:05:56 46° WSW 04:07:09 40° SW
Cosmos 724 4.2 04:05:14 40° SSW 04:07:26 89° WNW 04:13:16 10° NNE
Timation 2 Rocket 3.9 04:07:41 30° SSW 04:10:45 75° ESE 04:16:43 10° NNE
Cosmos 1356 Rocket 3.9 04:10:57 40° WNW 04:10:57 40° WNW 04:14:46 10° N
ARIANE 5 R/B 2.9 04:07:08 10° N 04:12:11 50° WNW 04:13:42 38° WSW
Lacrosse 5 rocket 3.0 04:11:25 21° WNW 04:12:49 26° NNW 04:16:16 10° NNE
Spot 4 Rocket 4.4 04:08:01 10° N 04:12:57 47° WNW 04:14:22 37° WSW
Cosmos 468 Rocket 4.2 04:12:08 40° WSW 04:13:46 56° WNW 04:19:01 10° NNE
Cosmos 990 Rocket 3.8 04:10:36 10° NNW 04:15:44 69° WSW 04:20:38 11° S
Okean O Rocket 4.5 04:16:51 10° ENE 04:18:46 13° E 04:20:40 10° ESE
USA 238 DEB 3.7 04:17:41 27° SSW 04:21:41 80° ESE 04:28:40 10° NE
USA 238 3.7 04:17:45 27° SSW 04:21:46 79° ESE 04:28:45 10° NE
Cosmos 2266 Rocket 4.0 04:16:48 10° N 04:22:54 82° E 04:29:03 10° S
Cosmos 1814 Rocket 3.9 04:20:49 34° SSW 04:23:07 76° WNW 04:28:20 10° NNE
Cosmos 1655 Rocket 4.2 04:17:54 10° NNW 04:24:01 51° W 04:27:55 23° SSW
Cosmos 1758 3.8 04:20:12 10° N 04:24:08 61° E 04:28:04 10° SSE
Cosmos 44 Rocket 3.6 04:19:57 10° NNW 04:25:05 74° NE 04:30:17 10° SE
Helios 1A Rocket 3.5 04:22:30 10° N 04:26:26 42° WNW 04:27:23 36° WSW
CZ-2D R/B 3.3 04:22:46 10° N 04:27:07 26° WNW 04:28:39 22° W
CZ-2D R/B 3.6 04:23:41 10° N 04:27:39 53° WNW 04:28:56 37° SW
DNEPR-1 R/B 4.4 04:26:52 22° S 04:29:15 44° ESE 04:33:34 10° NE
Cosmos 2150 Rocket 4.0 04:23:48 10° NNW 04:29:16 73° WSW 04:34:41 10° S
Cosmos 1733 3.6 04:30:16 10° N 04:34:07 64° E 04:37:57 10° SSE
Cosmos 1726 Rocket 4.3 04:31:08 10° NNW 04:34:57 31° W 04:35:31 30° WSW
Cosmos 2298 Rocket 4.1 04:31:13 10° NNW 04:36:26 55° WSW 04:41:35 10° S
Meteor 1-21 4.2 04:33:26 23° SSW 04:36:59 64° WNW 04:42:35 10° N
SL-16 R/B 3.9 04:36:53 19° W 04:37:09 19° W 04:41:25 10° NW
Cosmos 2360 Rocket 3.3 04:31:47 10° NNW 04:37:12 46° ENE 04:42:36 10° SE
Cosmos 1980 Rocket 3.2 04:34:56 10° NW 04:39:21 24° WSW 04:39:51 24° WSW
PSLV R/B 4.3 04:38:14 10° NNE 04:42:22 51° E 04:46:26 10° S
Meteor 2-11 Rocket 4.4 04:41:35 12° SSW 04:47:25 78° W 04:53:36 10° N
ADEOS II 2.1 04:42:53 10° N 04:48:06 67° WNW 04:52:21 16° SSW
ADEOS 4.2 04:45:23 10° N 04:50:13 39° WNW 04:53:17 20° SW
Cosmos 2082 Rocket 4.2 04:48:31 10° WNW 04:51:35 15° NW 04:54:46 10° N
Cosmos 841 Rocket 3.6 04:48:23 21° SW 04:51:45 58° WNW 04:56:54 10° NNE
Cosmos 1812 Rocket 3.7 04:47:35 10° N 04:52:05 78° E 04:56:32 10° SSE
UNKNOWN OBJECT B 4.0 04:49:21 10° NNW 04:52:34 26° WNW 04:53:49 21° W
SL-16 R/B 2.2 04:47:14 10° NNW 04:52:47 57° WSW 04:58:18 10° S
CZ-4B R/B 3.8 04:50:19 10° NNE 04:54:26 50° E 04:58:20 10° S
Cosmos 2058 Rocket 4.1 04:52:29 10° NNW 04:56:14 27° W 04:58:12 20° SW
Cosmos 1602 Rocket 3.5 04:53:47 13° SSW 04:57:36 70° W 05:01:56 10° N
NOSS 3-2 (C) 3.8 04:53:13 11° SSW 04:58:51 61° ESE 05:05:17 10° NE
Cosmos 1470 2.7 04:55:50 10° N 04:59:51 82° W 05:03:48 10° S
Cosmos 2228 4.3 04:56:50 10° NW 05:00:08 22° W 05:01:28 19° WSW
Resurs 1-4 Rocket 4.1 05:00:08 10° NNW 05:02:19 13° WNW 05:04:30 10° W
Cosmos 540 Rocket 3.4 05:02:52 12° SSW 05:07:41 72° WNW 05:12:51 10° NNE
Cosmos 2322 Rocket 2.5 05:02:52 10° NW 05:08:13 44° WSW 05:13:30 10° S
ATLAS 3B R/B 2.9 05:03:31 15° SW 05:09:34 64° NW 05:16:27 10° NNE
Cosmos 1626 Rocket 3.9 05:06:34 13° SSW 05:10:06 44° WNW 05:14:16 10° N
USA 161 3.1 05:09:41 10° SE 05:12:33 39° ENE 05:15:21 10° N
NOSS 3-2 (A) 3.5 05:10:13 12° SW 05:15:41 78° NW 05:22:19 10° NE
SJ 16-02 1.3 05:11:31 10° NNW 05:15:54 63° WSW 05:20:15 10° S
Cosmos 1833 4.3 05:11:27 10° SSW 05:17:15 89° ESE 05:23:04 10° NNE
Cosmos 292 Rocket 4.3 05:13:38 13° SW 05:17:35 41° WNW 05:22:08 10° N
Cosmos 1707 2.7 05:14:08 10° SSW 05:17:59 70° W 05:21:53 10° N
Cosmos 1378 3.4 05:14:45 10° SSW 05:18:22 48° WNW 05:22:02 10° N
MOS 1-B 4.4 05:13:55 10° NNE 05:19:46 84° WNW 05:25:35 10° SSW
ATLAS CENTAUR R/B 1.9 05:17:40 10° NNW 05:22:05 74° NE 05:26:45 10° SE
USA 215 3.3 05:19:29 10° NE 05:26:02 78° NW 05:32:34 10° WSW
CENTAUR R/B 3.5 05:24:34 10° S 05:30:09 46° ESE 05:36:30 10° NE
Meteor 1-31 Rocket 3.2 05:29:17 10° NNE 05:33:09 67° E 05:36:58 10° S
CZ-4B R/B 3.7 05:27:39 10° NNE 05:33:13 65° ESE 05:38:37 10° S
Cosmos 1953 3.4 05:30:46 10° NNW 05:34:12 26° W 05:37:37 10° SSW
PSLV R/B 3.9 05:31:12 10° N 05:35:00 56° WNW 05:38:41 10° SSW
Cosmos 1553 Rocket 4.1 05:33:41 10° S 05:40:06 88° W 05:46:33 10° N
Cosmos 1400 Rocket 3.5 05:36:51 10° S 05:40:41 57° E 05:44:36 10° NNE
IDEFIX/ARIANE 42P 3.8 05:39:20 10° NNE 05:44:21 45° E 05:49:22 10° S
Cosmos 1125 Rocket 3.9 05:39:57 10° NNW 05:44:59 44° WSW 05:49:58 10° S
